Location: Keppel Henge
(44.7900°N, 80.9447°W)
Time: 16:02:13
(UTC-05:00)

Envisat - Pass Details

Date: 08 October 2017
Orbit: 764 x 766 km, 98.2° (Epoch: 10 December)

Event Time Altitude Azimuth Distance (km) Brightness Sun altitude
Exits shadow 20:41:23 42° 115° (ESE) 1,089 3.3 -20.3°
Maximum altitude 20:42:38 52° 71° (ENE) 950 3.1 -20.6°
Drops below altitude 10° 20:47:34 10° 356° (N) 2,315 5.7 -21.4°
Sets 20:49:56 0° 352° (N) 3,246 6.5 -21.8°
